Regional Weather Roundup
Issued by NWS

Home | Current Version | Previous Version | Text Only | Print | Product List | Glossary On
Versions: 1 2 3 4 5 6 7 8 9 10 11 12 13 14 15 16 17 18 19 20 21 22 23 24 25 26 27 28 29 30 31 32 33 34 35 36 37 38 39 40 41 42 43 44 45 46 47 48 49 50
000
ASUS43 KBIS 222120
RWRND

NORTH DAKOTA REGIONAL WEATHER ROUNDUP
NATIONAL WEATHER SERVICE BISMARCK ND
400 PM CDT FRI AUG 22 2014

NOTE: "FAIR" INDICATES FEW OR NO CLOUDS BELOW 12,000 FEET WITH NO
SIGNIFICANT WEATHER AND/OR OBSTRUCTIONS TO VISIBILITY.


NDZ001>003-009>011-017-222200-
NORTHWEST NORTH DAKOTA

CITY           SKY/WX    TMP DP  RH WIND       PRES   REMARKS
WILLISTON      CLOUDY    67  54  63 E12       30.11S
MINOT          LGT RAIN  65  59  81 NE7       30.10S
MINOT AFB      CLOUDY    66  60  80 NE9       30.10S
$$

NDZ018>021-031>035-040>046-222200-
SOUTHWEST NORTH DAKOTA

CITY           SKY/WX    TMP DP  RH WIND       PRES   REMARKS
BISMARCK       PTSUNNY   74  65  73 NE14      30.04S
DICKINSON      CLOUDY    67  61  81 NE12      30.06F
GARRISON         N/A     67  62  84 NE10      30.08S
HETTINGER ARPT CLOUDY    72  59  63 VRB5      30.07F
$$

NDZ004>008-012>016-024-026-027-054-222200-
NORTHEAST NORTH DAKOTA

CITY           SKY/WX    TMP DP  RH WIND       PRES   REMARKS
GRAND FORKS    CLOUDY    71  64  78 N16       30.01S
GRND FRKS AFB  CLOUDY    71  66  84 N13       30.04R
DEVILS LAKE    CLOUDY    70  59  68 N8        30.06S
$$

NDZ022-023-025-028>030-036>039-047>053-222200-
SOUTHEAST NORTH DAKOTA

CITY           SKY/WX    TMP DP  RH WIND       PRES   REMARKS
FARGO          CLOUDY    72  66  81 N10       30.01R
JAMESTOWN      PTSUNNY   74  65  73 N9        30.03F
$$



USA.gov is the U.S. government's official web portal to all federal, state and local government web resources and services.